sat.trackr.live / text

‹ back to catalog

STARLINK-31476

NORAD 59523 · 2024-073N

PAYLOAD ACTIVE UNKNOWN

§ Identity

Operator
Country
US
Launch date
2024-04-17
Launch site
AFETR
Launch vehicle
Mass (kg)
RCS (m²)

Purposes: comms

External: N2YO · Heavens-Above · Gunter

§ Orbital elements

Epoch: 2026-09-21T12:29:16.083456Z

Period
94.27 min
Inclination
43.0023°
Eccentricity
0.0001066
Mean motion
15.27578120 rev/d
Perigee alt
482.3 km
Apogee alt
483.8 km
Semi-major
6,861.2 km
B*
1.1961e-5
RAAN
292.2192°
Arg perigee
277.5890°
Mean anomaly
82.4841°
Rev number
13,612

§ Raw data

STARLINK-314761 59523U 24073N   26264.52032504  .00000067  00000+0  11961-4 0  99952 59523  43.0023 292.2192 0001066 277.5890  82.4841 15.27578120136124

JSON: /api/v1/satellites/59523 · /tle

For live sub-satellite position, see the globe view (requires WebGL).

§ Visibility from observer

Set your observer location to see the next 7 days of passes ≥ 10°. The values pass through the URL so the page stays shareable.

No JS? Fill the form by hand. The geolocation button needs JavaScript.